Butler Co Rgnl Airport - Hamilton, Ohio, United States - FAA: HAO - ICAO: KHAO - IATA: HAO

 
  Longest Runway: 5,500 feet   Approach Types: ILS/DME    Customs Landing Rights Airport: No   Port of Entry: No

Local Forecast

Today (1/18): Sunny, with a high near 32. Southwest wind around 14 mph.

Tonight (1/18): Mostly clear, with a low around 16. Southwest wind 5 to 7 mph.

Friday (1/19): Sunny, with a high near 40. Light south wind becoming southwest 5 to 10 mph in the morning.

Friday Night (1/19): Mostly clear, with a low around 28. Southwest wind around 8 mph.

Saturday (1/20): Partly sunny, with a high near 43. Southwest wind 7 to 9 mph.

Saturday Night (1/20): A chance of rain, mainly after 10pm. Cloudy, with a low around 37. Chance of precipitation is 30%. New precipitation amounts of less than a tenth of an inch possible.

Sunday (1/21): A chance of rain before noon. Cloudy, with a high near 49. Chance of precipitation is 30%.



Current Weather (METAR)

2020/06/04 11:53 KHAO 041153Z AUTO 00000KT 9SM FEW049 22/21 A2985 RMK AO2 SLP103 70016 T02220206 10222 20194 53005

BUTLER COUNTY REGIONAL AIRPORT , OH, United States (KHAO) 39-22N 84-31W 188M Jun 04, 2020 - 07:53 AM EDT / 2020.06.04 1153 UTC Wind: Calm:0 Visibility: 9 mile(s):0 Sky conditions: mostly clear Temperature: 72.0 F (22.2 C) Dew Point: 69.1 F (20.6 C) Relative Humidity: 90% Pressure (altimeter): 29.85 in. Hg (1010 hPa) Pressure tendency: 0.01 inches (0.5 hPa) higher than three hours ago ob: KHAO 041153Z AUTO 00000KT 9SM FEW049 22/21 A2985 RMK AO2 SLP103 70016 T02220206 10222 20194 53005 cycle: 12

Terminal Forecast (TAF)